Photometre #859[NE_1.6] Durban_UKZN AOT

File : 20221123_859.hum

23/11/2022,03:34:55,TEMP=21.7,BA=5.40,STAT.A=14.0,ExtBa=12.53
23/11/2022,03:38:01,TEMP=22.0,BA=5.40,STAT.A=13.5,ExtBa=12.50
23/11/2022,03:41:37,TEMP=22.1,BA=5.40,STAT.A=13.5,ExtBa=12.49
23/11/2022,03:45:53,TEMP=22.1,BA=5.40,STAT.A=13.5,ExtBa=12.48
23/11/2022,03:51:00,TEMP=22.0,BA=5.40,STAT.A=14.0,ExtBa=12.48
23/11/2022,03:54:21,TEMP=22.2,BA=5.40,STAT.D=13.5,ExtBa=12.47
23/11/2022,03:57:16,TEMP=22.4,BA=5.40,STAT.A=13.5,ExtBa=12.46
23/11/2022,04:00:21,TEMP=22.5,BA=5.40,STAT.D=13.5,ExtBa=12.47
23/11/2022,04:03:21,TEMP=22.6,BA=5.40,STAT.D=13.5,ExtBa=12.46
23/11/2022,04:05:41,TEMP=22.9,BA=5.40,STAT.B=13.5,ExtBa=12.44
23/11/2022,04:15:21,TEMP=23.4,BA=5.36,STAT.A=13.5,ExtBa=12.42
23/11/2022,04:17:33,TEMP=23.7,BA=5.36,STAT.A=13.5,ExtBa=12.42
23/11/2022,04:19:29,TEMP=23.8,BA=5.36,STAT.A=13.5,ExtBa=12.43
23/11/2022,04:22:52,TEMP=23.8,BA=5.36,STAT.A=13.5,ExtBa=12.45
23/11/2022,04:27:21,TEMP=23.9,BA=5.36,STAT.D=14.0,ExtBa=12.45
23/11/2022,04:29:29,TEMP=24.3,BA=5.36,STAT.C=13.5,ExtBa=12.41
23/11/2022,04:46:52,TEMP=24.8,BA=5.36,STAT.A=13.5,ExtBa=12.35
23/11/2022,04:48:48,TEMP=25.0,BA=5.36,STAT.A=13.5,ExtBa=12.36
23/11/2022,04:51:22,TEMP=25.1,BA=5.36,STAT.D=13.5,ExtBa=12.36
23/11/2022,04:53:24,TEMP=25.3,BA=5.36,STAT.A=13.5,ExtBa=12.35
23/11/2022,04:57:22,TEMP=25.2,BA=5.36,STAT.D=14.0,ExtBa=12.38
23/11/2022,05:00:22,TEMP=25.4,BA=5.40,STAT.D=14.0,ExtBa=12.37
23/11/2022,05:03:22,TEMP=25.5,BA=5.40,STAT.D=14.0,ExtBa=12.36
23/11/2022,05:05:22,TEMP=25.8,BA=5.40,STAT.A=13.5,ExtBa=12.34
23/11/2022,05:09:22,TEMP=25.7,BA=5.40,STAT.D=14.0,ExtBa=12.37
23/11/2022,05:12:22,TEMP=25.9,BA=5.36,STAT.D=14.0,ExtBa=12.36
23/11/2022,05:15:22,TEMP=26.1,BA=5.36,STAT.D=14.0,ExtBa=12.36
23/11/2022,05:18:10,TEMP=26.3,BA=5.36,STAT.B=14.0,ExtBa=12.36
23/11/2022,05:30:22,TEMP=26.8,BA=5.40,STAT.D=14.0,ExtBa=12.37
23/11/2022,05:33:22,TEMP=27.0,BA=5.40,STAT.D=14.0,ExtBa=12.36
23/11/2022,05:36:22,TEMP=27.0,BA=5.40,STAT.D=14.0,ExtBa=12.37
23/11/2022,05:39:22,TEMP=26.9,BA=5.40,STAT.D=14.0,ExtBa=12.37
23/11/2022,05:42:22,TEMP=26.9,BA=5.40,STAT.D=14.0,ExtBa=12.38
23/11/2022,05:45:22,TEMP=26.9,BA=5.40,STAT.D=14.0,ExtBa=12.39
23/11/2022,05:47:20,TEMP=27.1,BA=5.40,STAT.B=14.0,ExtBa=12.37
23/11/2022,05:57:22,TEMP=27.1,BA=5.40,STAT.D=14.0,ExtBa=12.40
23/11/2022,05:59:18,TEMP=27.4,BA=5.40,STAT.D=14.0,ExtBa=12.40
23/11/2022,06:03:22,TEMP=27.1,BA=5.40,STAT.D=14.0,ExtBa=12.43
23/11/2022,06:06:22,TEMP=27.3,BA=5.40,STAT.D=14.0,ExtBa=12.44
23/11/2022,06:09:22,TEMP=27.4,BA=5.40,STAT.D=14.0,ExtBa=12.45
23/11/2022,06:12:22,TEMP=27.4,BA=5.40,STAT.D=14.0,ExtBa=12.46
23/11/2022,06:14:19,TEMP=27.7,BA=5.40,STAT.D=14.0,ExtBa=12.44
23/11/2022,06:18:23,TEMP=27.5,BA=5.40,STAT.D=14.0,ExtBa=12.49
23/11/2022,06:21:23,TEMP=27.6,BA=5.44,STAT.D=14.0,ExtBa=12.49
23/11/2022,06:24:23,TEMP=27.8,BA=5.44,STAT.D=14.0,ExtBa=12.50
23/11/2022,06:27:23,TEMP=27.9,BA=5.44,STAT.D=14.0,ExtBa=12.52
23/11/2022,06:29:21,TEMP=28.1,BA=5.44,STAT.D=14.0,ExtBa=12.50
23/11/2022,06:33:23,TEMP=27.9,BA=5.40,STAT.D=14.0,ExtBa=12.55
23/11/2022,06:36:23,TEMP=28.1,BA=5.40,STAT.D=14.0,ExtBa=12.56
23/11/2022,06:39:23,TEMP=28.2,BA=5.40,STAT.D=14.0,ExtBa=12.57
23/11/2022,06:42:23,TEMP=28.3,BA=5.40,STAT.D=14.0,ExtBa=12.58
23/11/2022,06:44:22,TEMP=28.6,BA=5.40,STAT.F,ExtBa=12.55
23/11/2022,07:09:50,TEMP=29.2,BA=5.44,STAT.D=14.5,ExtBa=12.75
23/11/2022,07:12:23,TEMP=29.5,BA=5.44,STAT.D=14.0,ExtBa=12.74
23/11/2022,07:14:22,TEMP=29.8,BA=5.44,STAT.D=14.0,ExtBa=12.72
23/11/2022,07:18:23,TEMP=29.6,BA=5.44,STAT.D=14.0,ExtBa=12.78
23/11/2022,07:21:23,TEMP=29.8,BA=5.44,STAT.D=14.0,ExtBa=12.79
23/11/2022,07:24:23,TEMP=30.0,BA=5.44,STAT.D=14.0,ExtBa=12.81
23/11/2022,07:27:23,TEMP=30.1,BA=5.44,STAT.D=14.0,ExtBa=12.82
23/11/2022,07:29:21,TEMP=30.4,BA=5.44,STAT.D=14.0,ExtBa=12.79
23/11/2022,07:33:23,TEMP=30.4,BA=5.44,STAT.D=14.0,ExtBa=12.85
23/11/2022,07:36:23,TEMP=30.4,BA=5.44,STAT.D=14.0,ExtBa=12.86
23/11/2022,07:39:23,TEMP=30.2,BA=5.44,STAT.D=14.0,ExtBa=12.86
23/11/2022,07:42:23,TEMP=30.1,BA=5.44,STAT.D=14.0,ExtBa=12.87
23/11/2022,07:44:24,TEMP=30.3,BA=5.44,STAT.F,ExtBa=12.85
23/11/2022,07:51:23,TEMP=29.9,BA=5.48,STAT.D=14.0,ExtBa=12.80
23/11/2022,07:54:24,TEMP=29.9,BA=5.48,STAT.D=14.0,ExtBa=12.86
23/11/2022,07:57:23,TEMP=29.8,BA=5.48,STAT.D=14.0,ExtBa=12.90
23/11/2022,07:59:23,TEMP=30.0,BA=5.48,STAT.D=14.0,ExtBa=12.91
23/11/2022,08:03:24,TEMP=29.7,BA=5.44,STAT.D=14.0,ExtBa=12.92
23/11/2022,08:06:24,TEMP=29.6,BA=5.44,STAT.D=14.0,ExtBa=12.93
23/11/2022,08:09:24,TEMP=29.5,BA=5.44,STAT.D=14.0,ExtBa=12.94
23/11/2022,08:12:24,TEMP=29.5,BA=5.44,STAT.D=14.0,ExtBa=12.95
23/11/2022,08:14:24,TEMP=29.7,BA=5.44,STAT.D=14.0,ExtBa=12.94
23/11/2022,08:18:24,TEMP=29.4,BA=5.44,STAT.D=14.0,ExtBa=12.97
23/11/2022,08:21:24,TEMP=29.5,BA=5.44,STAT.D=14.0,ExtBa=12.97
23/11/2022,08:24:24,TEMP=29.4,BA=5.44,STAT.D=14.0,ExtBa=12.97
23/11/2022,08:27:24,TEMP=29.5,BA=5.44,STAT.D=14.0,ExtBa=12.98
23/11/2022,08:29:25,TEMP=29.9,BA=5.44,STAT.D=14.0,ExtBa=12.96
23/11/2022,08:33:24,TEMP=29.9,BA=5.44,STAT.D=14.0,ExtBa=12.99
23/11/2022,08:36:24,TEMP=30.1,BA=5.44,STAT.D=14.0,ExtBa=13.00
23/11/2022,08:39:24,TEMP=30.1,BA=5.44,STAT.D=14.0,ExtBa=13.00
23/11/2022,08:42:24,TEMP=30.0,BA=5.44,STAT.D=14.0,ExtBa=13.00
23/11/2022,08:44:28,TEMP=30.2,BA=5.44,STAT.F,ExtBa=12.99
23/11/2022,08:51:24,TEMP=30.2,BA=5.48,STAT.D=14.0,ExtBa=12.96
23/11/2022,08:54:24,TEMP=30.2,BA=5.48,STAT.D=14.0,ExtBa=12.99
23/11/2022,08:57:24,TEMP=30.2,BA=5.48,STAT.D=14.0,ExtBa=13.01
23/11/2022,08:59:26,TEMP=30.3,BA=5.48,STAT.D=14.0,ExtBa=13.00
23/11/2022,09:03:24,TEMP=30.1,BA=5.44,STAT.D=14.0,ExtBa=13.02
23/11/2022,09:06:24,TEMP=30.1,BA=5.44,STAT.D=14.0,ExtBa=13.02
23/11/2022,09:09:24,TEMP=30.1,BA=5.44,STAT.D=14.0,ExtBa=13.03
23/11/2022,09:12:24,TEMP=30.0,BA=5.48,STAT.D=14.0,ExtBa=13.03
23/11/2022,09:14:26,TEMP=30.2,BA=5.48,STAT.D=14.0,ExtBa=13.02
23/11/2022,09:18:24,TEMP=30.0,BA=5.48,STAT.D=14.0,ExtBa=13.04
23/11/2022,09:21:24,TEMP=30.1,BA=5.48,STAT.D=14.0,ExtBa=13.04
23/11/2022,09:24:24,TEMP=30.1,BA=5.48,STAT.D=14.0,ExtBa=13.04
23/11/2022,09:27:24,TEMP=30.1,BA=5.48,STAT.D=14.0,ExtBa=13.04
23/11/2022,09:29:27,TEMP=30.3,BA=5.48,STAT.D=14.0,ExtBa=13.03
23/11/2022,09:33:24,TEMP=30.1,BA=5.48,STAT.D=14.0,ExtBa=13.05
23/11/2022,09:36:24,TEMP=30.2,BA=5.48,STAT.D=14.0,ExtBa=13.05
23/11/2022,09:39:24,TEMP=30.4,BA=5.48,STAT.D=14.0,ExtBa=13.05
23/11/2022,09:42:25,TEMP=30.5,BA=5.48,STAT.D=14.0,ExtBa=13.05
23/11/2022,09:44:30,TEMP=30.7,BA=5.48,STAT.F,ExtBa=13.04
23/11/2022,09:51:24,TEMP=30.9,BA=5.48,STAT.D=14.0,ExtBa=13.01
23/11/2022,09:54:24,TEMP=31.2,BA=5.48,STAT.D=14.0,ExtBa=13.04
23/11/2022,09:57:24,TEMP=31.2,BA=5.48,STAT.D=14.0,ExtBa=13.05
23/11/2022,09:59:28,TEMP=31.4,BA=5.48,STAT.D=14.0,ExtBa=13.04
23/11/2022,10:03:24,TEMP=31.3,BA=5.48,STAT.D=14.0,ExtBa=13.06
23/11/2022,10:06:24,TEMP=31.6,BA=5.48,STAT.D=14.0,ExtBa=13.06
23/11/2022,10:09:24,TEMP=31.8,BA=5.48,STAT.D=14.0,ExtBa=13.06
23/11/2022,10:12:24,TEMP=31.9,BA=5.48,STAT.D=14.0,ExtBa=13.06
23/11/2022,10:14:27,TEMP=32.1,BA=5.48,STAT.D=14.0,ExtBa=13.05
23/11/2022,10:18:24,TEMP=31.9,BA=5.48,STAT.D=14.0,ExtBa=13.07
23/11/2022,10:21:24,TEMP=31.8,BA=5.48,STAT.D=14.0,ExtBa=13.07
23/11/2022,10:24:24,TEMP=31.8,BA=5.48,STAT.D=14.0,ExtBa=13.08
23/11/2022,10:27:24,TEMP=31.7,BA=5.48,STAT.D=14.0,ExtBa=13.08
23/11/2022,10:29:27,TEMP=31.9,BA=5.48,STAT.D=14.0,ExtBa=13.07
23/11/2022,10:33:24,TEMP=31.6,BA=5.48,STAT.D=14.5,ExtBa=13.08
23/11/2022,10:36:24,TEMP=31.7,BA=5.48,STAT.D=14.0,ExtBa=13.08
23/11/2022,10:39:24,TEMP=31.8,BA=5.48,STAT.D=14.0,ExtBa=13.08
23/11/2022,10:42:24,TEMP=31.7,BA=5.48,STAT.D=14.0,ExtBa=13.09
23/11/2022,10:44:27,TEMP=31.8,BA=5.48,STAT.F,ExtBa=13.07
23/11/2022,10:51:24,TEMP=31.4,BA=5.48,STAT.D=14.5,ExtBa=13.04
23/11/2022,10:54:24,TEMP=31.4,BA=5.48,STAT.D=14.0,ExtBa=13.07
23/11/2022,10:57:24,TEMP=31.4,BA=5.48,STAT.D=14.0,ExtBa=13.08
23/11/2022,10:59:28,TEMP=31.5,BA=5.48,STAT.D=14.0,ExtBa=13.07
23/11/2022,11:03:24,TEMP=31.2,BA=5.48,STAT.D=14.0,ExtBa=13.09
23/11/2022,11:06:24,TEMP=31.3,BA=5.48,STAT.D=14.0,ExtBa=13.09
23/11/2022,11:09:24,TEMP=31.2,BA=5.48,STAT.D=14.0,ExtBa=13.09
23/11/2022,11:12:24,TEMP=31.1,BA=5.48,STAT.D=14.0,ExtBa=13.09
23/11/2022,11:14:25,TEMP=31.3,BA=5.48,STAT.D=14.0,ExtBa=13.08
23/11/2022,11:18:24,TEMP=31.2,BA=5.48,STAT.D=14.0,ExtBa=13.09
23/11/2022,11:21:24,TEMP=31.4,BA=5.48,STAT.D=14.0,ExtBa=13.09
23/11/2022,11:24:24,TEMP=31.5,BA=5.48,STAT.D=14.0,ExtBa=13.09
23/11/2022,11:27:23,TEMP=31.6,BA=5.48,STAT.D=14.0,ExtBa=13.09
23/11/2022,11:29:22,TEMP=31.8,BA=5.48,STAT.D=14.0,ExtBa=13.07
23/11/2022,11:33:23,TEMP=31.4,BA=5.48,STAT.D=14.0,ExtBa=13.09
23/11/2022,11:36:23,TEMP=31.4,BA=5.48,STAT.D=14.0,ExtBa=13.09
23/11/2022,11:39:23,TEMP=31.5,BA=5.48,STAT.D=14.0,ExtBa=13.08
23/11/2022,11:42:23,TEMP=31.6,BA=5.48,STAT.D=14.0,ExtBa=13.09
23/11/2022,11:44:25,TEMP=31.8,BA=5.48,STAT.F,ExtBa=13.06
23/11/2022,11:51:23,TEMP=31.9,BA=5.48,STAT.D=14.0,ExtBa=13.02
23/11/2022,11:54:23,TEMP=31.9,BA=5.48,STAT.D=14.0,ExtBa=13.05
23/11/2022,11:57:23,TEMP=31.9,BA=5.48,STAT.D=14.0,ExtBa=13.06
23/11/2022,11:59:22,TEMP=32.1,BA=5.48,STAT.D=14.0,ExtBa=13.05
23/11/2022,12:03:23,TEMP=31.9,BA=5.48,STAT.D=14.0,ExtBa=13.07
23/11/2022,12:06:23,TEMP=32.0,BA=5.48,STAT.D=14.0,ExtBa=13.07
23/11/2022,12:09:23,TEMP=32.0,BA=5.48,STAT.D=14.0,ExtBa=13.06
23/11/2022,12:12:23,TEMP=31.8,BA=5.48,STAT.D=14.0,ExtBa=13.06
23/11/2022,12:14:21,TEMP=31.9,BA=5.48,STAT.D=14.0,ExtBa=13.04
23/11/2022,12:27:23,TEMP=31.2,BA=5.52,STAT.D=14.5,ExtBa=13.06
23/11/2022,12:29:21,TEMP=31.4,BA=5.52,STAT.D=14.0,ExtBa=13.03
23/11/2022,12:33:23,TEMP=31.1,BA=5.48,STAT.D=14.0,ExtBa=13.05
23/11/2022,12:36:23,TEMP=31.1,BA=5.48,STAT.D=14.0,ExtBa=13.04
23/11/2022,12:39:23,TEMP=31.0,BA=5.48,STAT.D=14.0,ExtBa=13.04
23/11/2022,12:42:23,TEMP=31.1,BA=5.48,STAT.D=14.0,ExtBa=13.03
23/11/2022,12:44:23,TEMP=31.4,BA=5.48,STAT.F,ExtBa=13.01
23/11/2022,12:58:21,TEMP=30.9,BA=5.48,STAT.D=14.0,ExtBa=12.84
23/11/2022,13:00:23,TEMP=31.1,BA=5.48,STAT.D=14.0,ExtBa=12.87
23/11/2022,13:03:23,TEMP=30.8,BA=5.48,STAT.D=14.0,ExtBa=12.92
23/11/2022,13:06:23,TEMP=30.6,BA=5.48,STAT.D=14.0,ExtBa=12.93
23/11/2022,13:09:22,TEMP=30.7,BA=5.48,STAT.D=14.0,ExtBa=12.92
23/11/2022,13:12:23,TEMP=30.7,BA=5.48,STAT.D=14.0,ExtBa=12.92
23/11/2022,13:14:23,TEMP=31.0,BA=5.48,STAT.D=14.0,ExtBa=12.89
23/11/2022,13:18:22,TEMP=30.7,BA=5.48,STAT.D=14.0,ExtBa=12.93
23/11/2022,13:21:22,TEMP=30.7,BA=5.48,STAT.D=14.0,ExtBa=12.93
23/11/2022,13:24:22,TEMP=30.5,BA=5.48,STAT.D=14.0,ExtBa=12.92
23/11/2022,13:27:22,TEMP=30.4,BA=5.48,STAT.D=14.0,ExtBa=12.92
23/11/2022,13:29:19,TEMP=30.6,BA=5.48,STAT.D=14.0,ExtBa=12.87
23/11/2022,13:33:22,TEMP=30.2,BA=5.48,STAT.D=14.0,ExtBa=12.89
23/11/2022,13:36:22,TEMP=30.3,BA=5.48,STAT.D=14.0,ExtBa=12.88
23/11/2022,13:39:22,TEMP=30.2,BA=5.48,STAT.D=14.0,ExtBa=12.88
23/11/2022,13:41:23,TEMP=30.3,BA=5.48,STAT.B=14.0,ExtBa=12.85
23/11/2022,13:51:22,TEMP=29.8,BA=5.48,STAT.D=14.0,ExtBa=12.73
23/11/2022,13:54:22,TEMP=29.8,BA=5.48,STAT.D=14.0,ExtBa=12.75
23/11/2022,13:57:22,TEMP=29.7,BA=5.48,STAT.D=14.0,ExtBa=12.74
23/11/2022,14:00:22,TEMP=29.5,BA=5.48,STAT.D=14.0,ExtBa=12.73
23/11/2022,14:03:22,TEMP=29.4,BA=5.48,STAT.D=14.0,ExtBa=12.73
23/11/2022,14:06:22,TEMP=29.2,BA=5.48,STAT.D=14.0,ExtBa=12.72
23/11/2022,14:08:18,TEMP=29.3,BA=5.48,STAT.B=14.0,ExtBa=12.70
23/11/2022,14:18:22,TEMP=28.9,BA=5.48,STAT.D=14.0,ExtBa=12.65
23/11/2022,14:21:22,TEMP=28.9,BA=5.44,STAT.D=14.0,ExtBa=12.66
23/11/2022,14:23:44,TEMP=29.0,BA=5.44,STAT.A=14.0,ExtBa=12.62
23/11/2022,14:32:52,TEMP=28.7,BA=5.48,STAT.A=14.0,ExtBa=12.66
23/11/2022,14:42:16,STAT.p
23/11/2022,14:45:22,TEMP=28.3,BA=5.48,STAT.D=14.0,ExtBa=12.61
23/11/2022,14:59:32,TEMP=27.9,BA=5.48,STAT.A=14.0,ExtBa=12.59
23/11/2022,15:01:53,TEMP=28.3,BA=5.48,STAT.C=14.0,ExtBa=12.55
23/11/2022,15:03:50,TEMP=28.5,BA=5.48,STAT.A=14.0,ExtBa=12.55
23/11/2022,15:08:19,TEMP=28.0,BA=5.48,STAT.A=14.0,ExtBa=12.58
23/11/2022,15:12:56,STAT.p
23/11/2022,15:15:21,TEMP=27.6,BA=5.48,STAT.D=14.0,ExtBa=12.57
23/11/2022,15:17:24,STAT.p
23/11/2022,15:20:49,TEMP=27.5,BA=5.48,STAT.B=14.0,ExtBa=12.57
23/11/2022,15:28:40,TEMP=27.3,BA=5.48,STAT.A=14.0,ExtBa=12.57
23/11/2022,15:34:56,TEMP=27.0,BA=5.44,STAT.A=14.0,ExtBa=12.56
23/11/2022,15:40:03,TEMP=26.9,BA=5.44,STAT.A=14.0,ExtBa=12.56
23/11/2022,15:44:19,TEMP=26.7,BA=5.44,STAT.A=14.0,ExtBa=12.55
23/11/2022,15:47:55,TEMP=26.6,BA=5.44,STAT.A=14.0,ExtBa=12.54
23/11/2022,15:51:01,TEMP=26.5,BA=5.44,STAT.A=14.0,ExtBa=12.54